Header for Extended Forecast Station List Page

Search by: ID | Name | Date | Parm | Value | Avg | % Avg
Sort by: ID | Name | Date | Parm | Value | Avg | % Avg

Enter search or view all records.

Click on id for station plot
#IDNameDateParmValueAvg% Avg
0MAGI1BIG WOOD-MAGIC DAM09-13-2021INFLOW (KAF)72725
1STRM8ST. REGIS-NEAR ST. REGIS09-13-2021DISCHARGE (KAF)193357
2HWRI1BIG LOST-AT HOWELL RANCH NEAR CHILLY09-13-2021DISCHARGE (KAF)142557
3HALI1BIG WOOD-AT HAILEY09-13-2021DISCHARGE (KAF)254458
4BFTI1SNAKE-NEAR BLACKFOOT09-13-2021DISCHARGE (KAF)41470659
5LWRI1LITTLE WOOD-LITTLE WOOD DAM09-13-2021INFLOW (KAF)91560
6ANAW1SNAKE-NEAR ANATONE09-13-2021DISCHARGE (KAF)3152524160
7SNAI1SNAKE-AT BLACKFOOT09-13-2021DISCHARGE (KAF)40265961
8EMMI1PAYETTE-NEAR EMMETT09-13-2021DISCHARGE (KAF)21835761
9LGDW1SNAKE-LOWER GRANITE DAM09-13-2021INFLOW (KAF)4102673161
10LGSW1SNAKE-LITTLE GOOSE DAM09-13-2021INFLOW (KAF)4102677061
11LMNW1SNAKE-LOWER MONUMENTAL DAM09-13-2021INFLOW (KAF)4127678761
12IHDW1SNAKE-ICE HARBOR DAM09-13-2021INFLOW (KAF)4127672061
13LLKW1SPOKANE-AT LONGLAKE09-13-2021INFLOW (KAF)54587962
14RIDI1WILLOW CREEK-RIRIE DAM09-13-2021INFLOW (KAF)5863
15BIGI1BOISE-AT GLENWOOD BRIDGE09-13-2021DISCHARGE (KAF)375863
16COEI1COEUR D ALENE-COEUR D ALENE LAKE09-13-2021INFLOW (KAF)28143165
17WSRI1WEISER-NEAR WEISER09-13-2021DISCHARGE (KAF)355366
18NOXM8CLARK FORK-NOXON RAPIDS DAM09-13-2021INFLOW (KAF)2195327967
19ALFW1PEND OREILLE-ALBENI FALLS DAM09-13-2021INFLOW (KAF)2634390567
20PIHI1PORTNEUF-AT POCATELLO09-13-2021DISCHARGE (KAF)355167
21WHBI1SALMON-AT WHITEBIRD09-13-2021DISCHARGE (KAF)751111068
22TNAW1TEANAWAY-BELOW FORKS09-13-2021DISCHARGE (KAF)172569
23SIFI1SNAKE-AB EAGLE ROCK NR IDAHO FALLS09-13-2021DISCHARGE (KAF)61088169
24TRYO3GRANDE RONDE-TROY09-13-2021DISCHARGE (KAF)16223669
25LAUW1KETTLE-AT LAURIER09-13-2021DISCHARGE (KAF)9012770
26OWYO3OWYHEE-OWYHEE DAM09-13-2021INFLOW (KAF)456470
27BITM8BITTERROOT-NEAR MISSOULA09-13-2021DISCHARGE (KAF)16723471
28CABI1CLARK FORK-CABINET GORGE DAM09-13-2021INFLOW (KAF)2407341371
29HEII1SNAKE-NEAR HEISE09-13-2021DISCHARGE (KAF)58782371
30DWRI1NF CLEARWATER-DWORSHAK DAM09-13-2021INFLOW (KAF)29641571
31KERM8FLATHEAD-SELI’Š KSANKA QLISPE’ DAM09-13-2021INFLOW (KAF)1071148572
32SATI1ST MARIES-NEAR SANTA09-13-2021DISCHARGE (KAF)162372
33SPDI1CLEARWATER-AT SPALDING09-13-2021DISCHARGE (KAF)954132772
34SHYI1SNAKE-NEAR SHELLEY09-13-2021DISCHARGE (KAF)58680673
35SWAI1SNAKE-BELOW SWAN FALLS09-13-2021DISCHARGE (KAF)1774242773
36WEII1SNAKE-AT WEISER09-13-2021DISCHARGE (KAF)2528347573
37SRGM8CLARK FORK-AT ST REGIS09-13-2021DISCHARGE (KAF)57978074
38DLGM8CLARK FORK-AT DEER LODGE09-13-2021DISCHARGE (KAF)466275
39PARI1BOISE-NEAR PARMA09-13-2021DISCHARGE (KAF)16822376
40BRNI1SNAKE-BROWNLEE DAM09-13-2021INFLOW (KAF)2693354076
41BELM8CLARK FORK-BELOW MISSOULA09-13-2021DISCHARGE (KAF)46460677
42AFRI1SNAKE-AMERICAN FALLS RESERVOIR09-13-2021INFLOW (KAF)1065139077
43DEDI1DEADWOOD-NEAR LOWMAN09-13-2021INFLOW (KAF)141877
44HHWM8SF FLATHEAD-HUNGRY HORSE DAM09-13-2021INFLOW (KAF)18724078
45UMTW1YAKIMA-AT UMTANUM09-13-2021DISCHARGE (KAF)22028378
46UNDW1WHITE SALMON-NEAR UNDERWOOD09-13-2021DISCHARGE (KAF)14718778
47CFMM8FLATHEAD-AT COLUMBIA FALLS09-13-2021DISCHARGE (KAF)968122179
48BONM8BLACKFOOT-NEAR BONNER09-13-2021DISCHARGE (KAF)11514579
49RILW1TIETON-RIMROCK LAKE NEAR RIMROCK09-13-2021INFLOW (KAF)486179
50IPDI1HENRYS FORK-ISLAND PARK DAM09-13-2021INFLOW (KAF)9912579
51TONW1OKANOGAN-NEAR TONASKET09-13-2021DISCHARGE (KAF)22127680
52BONO3COLUMBIA-BONNEVILLE DAM09-13-2021INFLOW (KAF)254863196980
53ABOM8CLARK FORK-ABOVE MISSOULA09-13-2021DISCHARGE (KAF)29536381
54TEAI1TETON-NEAR ST. ANTHONY09-13-2021DISCHARGE (KAF)10012381
55ORFI1CLEARWATER-AT OROFINO09-13-2021DISCHARGE (KAF)44655381
56WRMO3MALHEUR-WARM SPRINGS DAM09-13-2021INFLOW (KAF)91182
57SERO3JOHN DAY-AT SERVICE CK09-13-2021DISCHARGE (KAF)9511682
58TDAO3COLUMBIA-THE DALLES DAM09-13-2021INFLOW (KAF)249783042282
59TCHW1WALLA WALLA-NEAR TOUCHET09-13-2021DISCHARGE (KAF)496083
60LYDM8KOOTENAI-LIBBY DAM09-13-2021INFLOW (KAF)905108384
61MONO3NF JOHN DAY-AT MONUMENT09-13-2021DISCHARGE (KAF)505984
62EASW1YAKIMA-AT EASTON09-13-2021DISCHARGE (KAF)495885
63BERO3MALHEUR-AGENCY VALLEY DAM09-13-2021INFLOW (KAF)101285
64RCCM8ROCK CREEK-NEAR CLINTON09-13-2021DISCHARGE (KAF)475586
65PATW1METHOW-NEAR PATEROS09-13-2021DISCHARGE (KAF)8710286
66JLKW4SNAKE-JACKSON LAKE AT DAM09-13-2021INFLOW (KAF)9811386
67MCDW1COLUMBIA-MCNARY DAM09-13-2021INFLOW (KAF)234572735186
68JDAO3COLUMBIA-JOHN DAY DAM09-13-2021INFLOW (KAF)242582799787
69REXI1HENRYS FORK-AT REXBURG09-13-2021DISCHARGE (KAF)37242388
70ARAI1SF BOISE-ANDERSON RANCH DAM09-13-2021INFLOW (KAF)627088
71PESW1WENATCHEE-AT PESHASTIN09-13-2021DISCHARGE (KAF)23626589
72PARW1YAKIMA-NEAR PARKER09-13-2021DISCHARGE (KAF)29032489
73HOTI1BRUNEAU-NEAR HOT SPRINGS09-13-2021DISCHARGE (KAF)212489
74BUDW1BUMPING-BUMPING LAKE DAM09-13-2021INFLOW (KAF)272990
75CSDI1NF PAYETTE-CASCADE DAM09-13-2021INFLOW (KAF)798890
76CHJW1COLUMBIA-CHIEF JOSEPH DAM09-13-2021INFLOW (KAF)178781968691
77WELW1COLUMBIA-WELLS DAM09-13-2021INFLOW (KAF)181761999591
78RRHW1COLUMBIA-ROCKY REACH DAM09-13-2021INFLOW (KAF)185552049491
79PLDI1SF SNAKE-PALISADES DAM09-13-2021INFLOW (KAF)70476991
80ARDW1ENTIAT-NEAR ARDENVOIR09-13-2021DISCHARGE (KAF)212293
81ANTI1HENRYS FORK-AT ST. ANTHONY09-13-2021DISCHARGE (KAF)31033493
82GIBO3UMATILLA-NEAR GIBBON09-13-2021DISCHARGE (KAF)202293
83PRTI1PRIEST-NEAR PRIEST RIVER09-13-2021DISCHARGE (KAF)20021394
84GCDW1COLUMBIA-GRAND COULEE DAM09-13-2021INFLOW (KAF)164481731795
85CHEI1FALL RIVER-NEAR CHESTER09-13-2021DISCHARGE (KAF)10210696
86PITW1KLICKITAT-NEAR PITT09-13-2021DISCHARGE (KAF)20721696
87HODO3HOOD-NEAR TUCKER BRIDGE09-13-2021DISCHARGE (KAF)16016597
88FCFM8NF FLATHEAD-NEAR COLUMBIA FALLS09-13-2021DISCHARGE (KAF)21121698
89PRWW1COLUMBIA-PRIEST RAPIDS DAM09-13-2021INFLOW (KAF)187811917198
90CLFW1NACHES-NEAR CLIFFDEL09-13-2021DISCHARGE (KAF)889098
91KIOW1YAKIMA-AT KIONA09-13-2021DISCHARGE (KAF)57358698
92MODO3DESCHUTES-AT MOODY NR BIGGS09-13-2021DISCHARGE (KAF)1217124498
93WANW1COLUMBIA-WANAPUM DAM09-13-2021INFLOW (KAF)187871888999
94ALPW4SNAKE-NEAR ALPINE09-13-2021DISCHARGE (KAF)49750099
95MYKO3MCKAY CREEK-NEAR PILOT ROCK09-13-2021DISCHARGE (KAF)88101
96PDTO3UMATILLA-AT PENDLETON09-13-2021DISCHARGE (KAF)4342103
97JKSW4SNAKE-NEAR JACKSON09-13-2021DISCHARGE (KAF)428404106
98WGCM8MF FLATHEAD-NEAR WEST GLACIER09-13-2021DISCHARGE (KAF)200184109
99CHDW1CHELAN-LAKE CHELAN DAM09-13-2021INFLOW (KAF)173158109
100KEDW1YAKIMA-KEECHELUS LAKE09-13-2021INFLOW (KAF)4844109
101KADW1KACHESS-KACHESS DAM09-13-2021INFLOW (KAF)3935113
102CLUW1CLE ELUM-CLE ELUM LAKE09-13-2021INFLOW (KAF)11588130
103NACW1NACHES-NEAR NACHES09-13-2021DISCHARGE (KAF)11078141
104LEOI1KOOTENAI-AT LEONIA09-13-2021DISCHARGE (KAF)27431758156
105UMAO3UMATILLA-NEAR UMATILLA09-13-2021DISCHARGE (KAF)8441204
106MACI1BIG LOST-MACKAY RESERVOIR NEAR MACKAY09-13-2021INFLOW (KAF)2510252
107BFEI1KOOTENAI-AT BONNERS FERRY09-13-2021STAGE (FT)MMM
108DRMM8CLARK FORK-NR DRUMMOND09-13-2021DISCHARGE (KAF)120MM
109HOPI1PEND OREILLE-PEND OREILLE LAKE NR HOPE09-13-2021LAKE ELEVATION (FT)MMM
110SPOW1SPOKANE-AT SPOKANE09-13-2021DISCHARGE (KAF)381MM
111SJMI1ST JOE-AT ST MARIES09-13-2021STAGE (FT)MMM
112CIBW1COLUMBIA-AT INTL BOUNDARY09-13-2021DISCHARGE (KAF)15784MM
113MILI1SNAKE-AT MILNER09-13-2021DISCHARGE (KAF)M367M
114LUCI1BOISE-LUCKY PEAK DAM09-13-2021INFLOW (KAF)72MM
115BULO3BULLY CREEK-BULLY CREEK DAM09-13-2021INFLOW (KAF)M1M